Volver al catálogo

ORBCOMM FM 12

ActivoComunicacionesLEO
NORAD 25115·PAYLOAD·🇺🇸 United States

Lanzado Dec 23, 1997 desde Cape Canaveral Space Force Station

Loading…

Próximos Pases (próximas 24 horas)

TLE

ActualizadoSource: Space-Track

Época: Sep 14, 2026, 05:58 UTC

1 25115U 97084D   26257.24881055  .00000718  00000-0  23578-3 0  9991
2 25115  45.0158 349.4895 0002881 330.4251  29.6438 14.46898260507000

Sigue ORBCOMM FM 12 en tiempo real con AllMySat

Download on the App Store